| time (UTC) | temp F | wind direction | speed MPH | gust MPH | rain 1hr in | rain 24hr in | rain mn in | humidity % | barometer mb |
| 20260508004013 | 42 | 0 | 0.0 | 0.0 | 0.00 | 0.00 | 0.00 | 86 | 1010.1 |
| 20260508003514 | 43 | 0 | 0.0 | 0.0 | 0.00 | 0.00 | 0.00 | 86 | 1010.0 |
| 20260508003013 | 43 | 0 | 0.0 | 0.0 | 0.00 | 0.00 | 0.00 | 86 | 1010.2 |
| 20260508002513 | 43 | 0 | 0.0 | 0.0 | 0.00 | 0.00 | 0.00 | 86 | 1010.1 |
| 20260508002013 | 43 | 0 | 0.0 | 0.0 | 0.00 | 0.00 | 0.00 | 86 | 1010.1 |
| 20260508001513 | 43 | 0 | 0.0 | 0.0 | 0.00 | 0.00 | 0.00 | 86 | 1010.1 |
| 20260508001012 | 43 | 0 | 0.0 | 0.0 | 0.00 | 0.00 | 0.00 | 86 | 1010.2 |
| 20260508000513 | 43 | 0 | 0.0 | 0.0 | 0.00 | 0.00 | 0.00 | 86 | 1010.2 |
| 20260508000012 | 43 | 0 | 0.0 | 0.0 | 0.00 | 0.00 | 0.00 | 85 | 1010.1 |
| 20260507235512 | 43 | 0 | 0.0 | 0.0 | 0.00 | 0.00 | 0.00 | 85 | 1010.1 |
| 20260507235012 | 43 | 0 | 0.0 | 0.0 | 0.00 | 0.00 | 0.00 | 85 | 1010.2 |
| 20260507234512 | 44 | 0 | 0.0 | 1.0 | 0.00 | 0.00 | 0.00 | 85 | 1010.3 |
| 20260507234013 | 44 | 0 | 0.0 | 1.0 | 0.00 | 0.00 | 0.00 | 85 | 1010.2 |
| 20260507233513 | 44 | 0 | 0.0 | 0.0 | 0.00 | 0.00 | 0.00 | 85 | 1010.2 |
| 20260507233013 | 44 | 0 | 0.0 | 1.0 | 0.00 | 0.00 | 0.00 | 85 | 1010.1 |
| 20260507232512 | 44 | 0 | 0.0 | 0.0 | 0.00 | 0.00 | 0.00 | 85 | 1010.2 |
| 20260507232012 | 45 | 0 | 0.0 | 0.0 | 0.00 | 0.00 | 0.00 | 85 | 1010.2 |
| 20260507231512 | 45 | 0 | 0.0 | 0.0 | 0.00 | 0.00 | 0.00 | 85 | 1010.1 |
| 20260507231013 | 45 | 0 | 0.0 | 0.0 | 0.00 | 0.00 | 0.00 | 85 | 1010.3 |
| 20260507230513 | 45 | 0 | 0.0 | 0.0 | 0.00 | 0.00 | 0.00 | 85 | 1010.1 |
| 20260507230013 | 45 | 45 | 0.0 | 0.0 | 0.00 | 0.00 | 0.00 | 84 | 1010.2 |
| 20260507225513 | 45 | 45 | 0.0 | 0.0 | 0.00 | 0.00 | 0.00 | 84 | 1010.3 |
| 20260507225013 | 45 | 45 | 0.0 | 0.0 | 0.00 | 0.00 | 0.00 | 84 | 1010.4 |
| 20260507224512 | 45 | 45 | 0.0 | 0.0 | 0.00 | 0.00 | 0.00 | 84 | 1010.4 |
| 20260507224012 | 45 | 45 | 0.0 | 0.0 | 0.00 | 0.00 | 0.00 | 84 | 1010.3 |
| 20260507223513 | 45 | 45 | 0.0 | 0.0 | 0.00 | 0.00 | 0.00 | 83 | 1010.4 |
| 20260507223012 | 45 | 45 | 0.0 | 0.0 | 0.00 | 0.00 | 0.00 | 83 | 1010.2 |
| 20260507222513 | 45 | 0 | 0.0 | 0.0 | 0.00 | 0.00 | 0.00 | 83 | 1010.4 |
| 20260507222013 | 45 | 0 | 0.0 | 0.0 | 0.00 | 0.00 | 0.00 | 82 | 1010.2 |
| 20260507221512 | 45 | 135 | 0.0 | 0.0 | 0.00 | 0.00 | 0.00 | 82 | 1010.4 |
| 20260507221012 | 46 | 135 | 0.0 | 0.0 | 0.00 | 0.00 | 0.00 | 82 | 1010.4 |
| 20260507220513 | 46 | 135 | 0.0 | 0.0 | 0.00 | 0.00 | 0.00 | 81 | 1010.3 |
| 20260507220012 | 46 | 135 | 0.0 | 0.0 | 0.00 | 0.00 | 0.00 | 81 | 1010.4 |
| 20260507215513 | 46 | 135 | 0.0 | 0.0 | 0.00 | 0.00 | 0.00 | 80 | 1010.3 |
| 20260507215014 | 46 | 135 | 0.0 | 0.0 | 0.00 | 0.00 | 0.00 | 80 | 1010.5 |
| 20260507214512 | 47 | 135 | 0.0 | 0.0 | 0.00 | 0.00 | 0.00 | 80 | 1010.4 |
| 20260507214013 | 47 | 135 | 0.0 | 0.0 | 0.00 | 0.00 | 0.00 | 80 | 1010.3 |
| 20260507213512 | 47 | 135 | 0.0 | 0.0 | 0.00 | 0.00 | 0.00 | 79 | 1010.3 |
| 20260507213013 | 47 | 135 | 0.0 | 0.0 | 0.00 | 0.00 | 0.00 | 79 | 1010.2 |
| 20260507212514 | 47 | 135 | 0.0 | 0.0 | 0.00 | 0.00 | 0.00 | 79 | 1010.2 |
| 20260507212013 | 48 | 135 | 0.0 | 0.0 | 0.00 | 0.00 | 0.00 | 79 | 1010.2 |
| 20260507211513 | 48 | 135 | 0.0 | 0.0 | 0.00 | 0.00 | 0.00 | 78 | 1010.1 |
| 20260507211012 | 48 | 135 | 0.0 | 0.0 | 0.00 | 0.00 | 0.00 | 78 | 1010.1 |
| 20260507210512 | 48 | 158 | 0.0 | 0.0 | 0.00 | 0.00 | 0.00 | 77 | 1009.9 |
| 20260507210012 | 49 | 158 | 0.0 | 0.0 | 0.00 | 0.00 | 0.00 | 77 | 1010.0 |
| 20260507205512 | 49 | 202 | 0.0 | 0.0 | 0.00 | 0.00 | 0.00 | 77 | 1009.9 |
| 20260507205014 | 49 | 202 | 0.0 | 0.0 | 0.00 | 0.00 | 0.00 | 76 | 1009.8 |
| 20260507204512 | 49 | 202 | 0.0 | 0.0 | 0.00 | 0.00 | 0.00 | 76 | 1010.0 |
| 20260507204013 | 49 | 202 | 0.0 | 0.0 | 0.00 | 0.00 | 0.00 | 75 | 1009.8 |
| 20260507203513 | 50 | 202 | 0.0 | 0.0 | 0.00 | 0.00 | 0.00 | 74 | 1009.7 |
| 20260507203012 | 50 | 202 | 0.0 | 0.0 | 0.00 | 0.00 | 0.00 | 74 | 1009.8 |
| 20260507202512 | 50 | 202 | 0.0 | 0.0 | 0.00 | 0.00 | 0.00 | 73 | 1009.8 |
| 20260507202013 | 51 | 202 | 0.0 | 0.0 | 0.00 | 0.00 | 0.00 | 73 | 1009.7 |
| 20260507201512 | 51 | 202 | 0.0 | 0.0 | 0.00 | 0.00 | 0.00 | 72 | 1009.7 |
| 20260507201012 | 52 | 202 | 0.0 | 0.0 | 0.00 | 0.00 | 0.00 | 71 | 1009.5 |
| 20260507200513 | 52 | 202 | 0.0 | 0.0 | 0.00 | 0.00 | 0.00 | 70 | 1009.4 |
| 20260507200013 | 53 | 202 | 0.0 | 0.0 | 0.00 | 0.00 | 0.00 | 69 | 1009.5 |
| 20260507195513 | 53 | 202 | 0.0 | 0.0 | 0.00 | 0.00 | 0.00 | 68 | 1009.5 |
| 20260507195012 | 54 | 202 | 0.0 | 0.0 | 0.00 | 0.00 | 0.00 | 67 | 1009.2 |
| 20260507194513 | 55 | 202 | 0.0 | 0.0 | 0.00 | 0.00 | 0.00 | 66 | 1009.3 |
| 20260507194015 | 55 | 202 | 0.0 | 0.0 | 0.00 | 0.00 | 0.00 | 65 | 1009.2 |
| 20260507193512 | 56 | 202 | 0.0 | 0.0 | 0.00 | 0.00 | 0.00 | 65 | 1009.2 |
| 20260507193013 | 56 | 202 | 0.0 | 0.0 | 0.00 | 0.00 | 0.00 | 64 | 1009.1 |
| 20260507192513 | 57 | 202 | 0.0 | 0.0 | 0.00 | 0.00 | 0.00 | 63 | 1009.1 |
| 20260507192012 | 57 | 202 | 0.0 | 0.0 | 0.00 | 0.00 | 0.00 | 63 | 1009.0 |
| 20260507191512 | 58 | 202 | 0.0 | 0.0 | 0.00 | 0.00 | 0.00 | 62 | 1009.0 |
| 20260507191012 | 58 | 202 | 0.0 | 0.0 | 0.00 | 0.00 | 0.00 | 62 | 1009.0 |
| 20260507190513 | 58 | 202 | 0.0 | 0.0 | 0.00 | 0.00 | 0.00 | 61 | 1008.9 |
| 20260507190013 | 59 | 202 | 0.0 | 0.0 | 0.00 | 0.00 | 0.00 | 60 | 1009.1 |
| 20260507185512 | 59 | 202 | 0.0 | 0.0 | 0.00 | 0.00 | 0.00 | 60 | 1009.0 |
| 20260507185015 | 59 | 202 | 0.0 | 0.0 | 0.00 | 0.00 | 0.00 | 59 | 1009.1 |
| 20260507184512 | 60 | 202 | 0.0 | 0.0 | 0.00 | 0.00 | 0.00 | 59 | 1009.0 |
| 20260507184012 | 60 | 202 | 0.0 | 0.0 | 0.00 | 0.00 | 0.00 | 58 | 1009.0 |
| 20260507183512 | 60 | 202 | 0.0 | 0.0 | 0.00 | 0.00 | 0.00 | 58 | 1009.0 |
| 20260507183012 | 61 | 202 | 0.0 | 0.0 | 0.00 | 0.00 | 0.00 | 57 | 1008.8 |
| 20260507182512 | 61 | 202 | 0.0 | 2.0 | 0.00 | 0.00 | 0.00 | 57 | 1008.7 |
| 20260507182012 | 62 | 248 | 0.0 | 1.0 | 0.00 | 0.00 | 0.00 | 57 | 1008.7 |
| 20260507181512 | 62 | 248 | 0.0 | 0.0 | 0.00 | 0.00 | 0.00 | 56 | 1008.7 |
| 20260507181012 | 62 | 248 | 0.0 | 0.0 | 0.00 | 0.00 | 0.00 | 56 | 1008.7 |
| 20260507180512 | 62 | 248 | 0.0 | 0.0 | 0.00 | 0.00 | 0.00 | 55 | 1009.0 |
| 20260507180012 | 63 | 292 | 0.0 | 0.0 | 0.00 | 0.00 | 0.00 | 55 | 1009.0 |
| 20260507175513 | 63 | 292 | 0.0 | 0.0 | 0.00 | 0.00 | 0.00 | 55 | 1009.0 |
| 20260507175013 | 64 | 248 | 0.0 | 0.0 | 0.00 | 0.00 | 0.00 | 55 | 1008.9 |
| 20260507174512 | 64 | 202 | 0.0 | 0.0 | 0.00 | 0.00 | 0.00 | 54 | 1009.0 |
| 20260507174013 | 65 | 330 | 0.0 | 0.0 | 0.00 | 0.00 | 0.00 | 53 | 1008.8 |
| 20260507173512 | 65 | 253 | 1.0 | 5.0 | 0.00 | 0.00 | 0.00 | 53 | 1009.0 |
| 20260507173012 | 65 | 225 | 0.0 | 0.0 | 0.00 | 0.00 | 0.00 | 53 | 1008.8 |
| 20260507172513 | 65 | 225 | 0.0 | 0.0 | 0.00 | 0.00 | 0.00 | 53 | 1008.7 |
| 20260507172013 | 65 | 225 | 0.0 | 0.0 | 0.00 | 0.00 | 0.00 | 52 | 1008.8 |
| 20260507171513 | 65 | 225 | 0.0 | 0.0 | 0.00 | 0.00 | 0.00 | 52 | 1008.7 |
| 20260507171012 | 65 | 270 | 0.0 | 0.0 | 0.00 | 0.00 | 0.00 | 51 | 1008.8 |
| 20260507170513 | 65 | 270 | 0.0 | 0.0 | 0.00 | 0.00 | 0.00 | 50 | 1008.9 |
| 20260507170012 | 65 | 270 | 0.0 | 0.0 | 0.00 | 0.00 | 0.00 | 49 | 1008.9 |
| 20260507165512 | 66 | 334 | 0.0 | 0.0 | 0.00 | 0.00 | 0.00 | 48 | 1008.9 |
| 20260507165013 | 66 | 22 | 0.0 | 0.0 | 0.00 | 0.00 | 0.00 | 48 | 1008.8 |
| 20260507164512 | 67 | 0 | 0.0 | 0.0 | 0.00 | 0.00 | 0.00 | 47 | 1008.9 |
| 20260507164012 | 68 | 22 | 0.0 | 2.0 | 0.00 | 0.00 | 0.00 | 47 | 1008.8 |
| 20260507163512 | 68 | 53 | 0.0 | 0.0 | 0.00 | 0.00 | 0.00 | 46 | 1008.8 |
| 20260507163012 | 69 | 166 | 0.0 | 0.0 | 0.00 | 0.00 | 0.00 | 45 | 1008.8 |
| 20260507162513 | 69 | 158 | 0.0 | 0.0 | 0.00 | 0.00 | 0.00 | 46 | 1008.7 |
| 20260507162013 | 69 | 158 | 0.0 | 0.0 | 0.00 | 0.00 | 0.00 | 46 | 1008.7 |
| 20260507161512 | 69 | 158 | 0.0 | 0.0 | 0.00 | 0.00 | 0.00 | 46 | 1008.8 |
| 20260507161015 | 69 | 158 | 0.0 | 0.0 | 0.00 | 0.00 | 0.00 | 46 | 1008.8 |
| 20260507160513 | 69 | 166 | 0.0 | 2.0 | 0.00 | 0.00 | 0.00 | 46 | 1008.7 |
| 20260507160012 | 69 | 159 | 0.0 | 1.0 | 0.00 | 0.00 | 0.00 | 47 | 1008.6 |
| 20260507155512 | 69 | 256 | 0.0 | 2.0 | 0.00 | 0.00 | 0.00 | 46 | 1008.7 |
| 20260507155012 | 70 | 193 | 1.0 | 2.0 | 0.00 | 0.00 | 0.00 | 47 | 1008.7 |
| 20260507154512 | 70 | 135 | 0.0 | 2.0 | 0.00 | 0.00 | 0.00 | 47 | 1008.6 |
| 20260507154013 | 71 | 112 | 0.0 | 8.0 | 0.00 | 0.00 | 0.00 | 46 | 1008.4 |
| 20260507153513 | 71 | 102 | 1.0 | 9.0 | 0.00 | 0.00 | 0.00 | 46 | 1008.3 |
| 20260507153012 | 72 | 149 | 2.0 | 6.0 | 0.00 | 0.00 | 0.00 | 46 | 1008.3 |
| 20260507152511 | 72 | 181 | 3.0 | 7.0 | 0.00 | 0.00 | 0.00 | 46 | 1008.3 |
| 20260507152012 | 73 | 353 | 0.0 | 7.0 | 0.00 | 0.00 | 0.00 | 46 | 1008.2 |
| 20260507151512 | 73 | 197 | 2.0 | 9.0 | 0.00 | 0.00 | 0.00 | 46 | 1008.4 |
| 20260507151012 | 73 | 181 | 2.0 | 6.0 | 0.00 | 0.00 | 0.00 | 48 | 1008.4 |
| 20260507150513 | 72 | 190 | 3.0 | 6.0 | 0.00 | 0.00 | 0.00 | 48 | 1008.3 |
| 20260507150012 | 72 | 134 | 2.0 | 13.0 | 0.00 | 0.00 | 0.00 | 48 | 1008.5 |
| 20260507145513 | 71 | 145 | 2.0 | 13.0 | 0.00 | 0.00 | 0.00 | 49 | 1008.5 |
| 20260507145012 | 71 | 119 | 0.0 | 6.0 | 0.00 | 0.00 | 0.00 | 50 | 1008.6 |
| 20260507144512 | 70 | 167 | 3.0 | 7.0 | 0.00 | 0.00 | 0.00 | 49 | 1008.6 |
| 20260507144012 | 70 | 168 | 1.0 | 5.0 | 0.00 | 0.00 | 0.00 | 49 | 1008.6 |
| 20260507143512 | 71 | 204 | 2.0 | 9.0 | 0.00 | 0.00 | 0.00 | 48 | 1008.8 |
| 20260507143012 | 71 | 103 | 1.0 | 7.0 | 0.00 | 0.00 | 0.00 | 48 | 1008.8 |
| 20260507142512 | 72 | 112 | 3.0 | 7.0 | 0.00 | 0.00 | 0.00 | 48 | 1008.7 |
| 20260507142012 | 72 | 103 | 2.0 | 8.0 | 0.00 | 0.00 | 0.00 | 47 | 1008.8 |
| 20260507141511 | 72 | 107 | 1.0 | 6.0 | 0.00 | 0.00 | 0.00 | 47 | 1008.7 |
| 20260507141012 | 71 | 148 | 0.0 | 0.0 | 0.00 | 0.00 | 0.00 | 48 | 1008.7 |
| 20260507140511 | 71 | 113 | 1.0 | 2.0 | 0.00 | 0.00 | 0.00 | 49 | 1009.0 |
| 20260507140012 | 70 | 112 | 0.0 | 0.0 | 0.00 | 0.00 | 0.00 | 49 | 1009.0 |
| 20260507135512 | 70 | 183 | 1.0 | 7.0 | 0.00 | 0.00 | 0.00 | 49 | 1009.0 |
| 20260507135013 | 69 | 92 | 2.0 | 7.0 | 0.00 | 0.00 | 0.00 | 50 | 1009.2 |
| 20260507134512 | 68 | 149 | 2.0 | 7.0 | 0.00 | 0.00 | 0.00 | 50 | 1009.0 |
| 20260507134012 | 68 | 162 | 3.0 | 8.0 | 0.00 | 0.00 | 0.00 | 49 | 1009.0 |
| 20260507133512 | 69 | 89 | 5.0 | 7.0 | 0.00 | 0.00 | 0.00 | 48 | 1009.0 |
| 20260507133012 | 70 | 81 | 1.0 | 10.0 | 0.00 | 0.00 | 0.00 | 47 | 1009.1 |
| 20260507132511 | 71 | 92 | 2.0 | 10.0 | 0.00 | 0.00 | 0.00 | 48 | 1009.1 |
| 20260507132012 | 72 | 114 | 1.0 | 5.0 | 0.00 | 0.00 | 0.00 | 51 | 1009.2 |
| 20260507131512 | 72 | 136 | 2.0 | 8.0 | 0.00 | 0.00 | 0.00 | 50 | 1009.3 |
| 20260507131012 | 72 | 121 | 1.0 | 5.0 | 0.00 | 0.00 | 0.00 | 50 | 1009.4 |
| 20260507130513 | 73 | 184 | 1.0 | 7.0 | 0.00 | 0.00 | 0.00 | 50 | 1009.4 |
| 20260507130011 | 74 | 99 | 3.0 | 8.0 | 0.00 | 0.00 | 0.00 | 49 | 1009.6 |
| 20260507125511 | 74 | 116 | 2.0 | 10.0 | 0.00 | 0.00 | 0.00 | 49 | 1009.8 |
| 20260507125011 | 74 | 95 | 2.0 | 7.0 | 0.00 | 0.00 | 0.00 | 49 | 1010.0 |
| 20260507124512 | 74 | 176 | 2.0 | 6.0 | 0.00 | 0.00 | 0.00 | 50 | 1009.9 |
| 20260507124016 | 74 | 133 | 3.0 | 7.0 | 0.00 | 0.00 | 0.00 | 50 | 1009.9 |
| 20260507123512 | 73 | 160 | 3.0 | 8.0 | 0.00 | 0.00 | 0.00 | 50 | 1010.0 |
| 20260507123012 | 73 | 194 | 3.0 | 9.0 | 0.00 | 0.00 | 0.00 | 50 | 1009.9 |
| 20260507122513 | 73 | 188 | 3.0 | 8.0 | 0.00 | 0.00 | 0.00 | 51 | 1010.0 |
| 20260507122012 | 72 | 147 | 1.0 | 7.0 | 0.00 | 0.00 | 0.00 | 51 | 1009.9 |
| 20260507121512 | 72 | 199 | 3.0 | 12.0 | 0.00 | 0.00 | 0.00 | 51 | 1009.9 |
| 20260507121011 | 72 | 178 | 5.0 | 12.0 | 0.00 | 0.00 | 0.00 | 51 | 1010.0 |
| 20260507120512 | 72 | 165 | 3.0 | 13.0 | 0.00 | 0.00 | 0.00 | 49 | 1010.0 |
| 20260507120012 | 73 | 44 | 2.0 | 7.0 | 0.00 | 0.00 | 0.00 | 50 | 1010.0 |
| 20260507115512 | 73 | 84 | 1.0 | 7.0 | 0.00 | 0.00 | 0.00 | 52 | 1010.1 |
| 20260507115012 | 71 | 132 | 2.0 | 7.0 | 0.00 | 0.00 | 0.00 | 53 | 1010.0 |
| 20260507114512 | 70 | 224 | 1.0 | 3.0 | 0.00 | 0.00 | 0.00 | 53 | 1010.2 |
| 20260507114012 | 70 | 179 | 1.0 | 2.0 | 0.00 | 0.00 | 0.00 | 52 | 1010.2 |
| 20260507113512 | 70 | 136 | 2.0 | 7.0 | 0.00 | 0.00 | 0.00 | 53 | 1010.2 |
| 20260507113011 | 70 | 172 | 1.0 | 5.0 | 0.00 | 0.00 | 0.00 | 54 | 1010.3 |
| 20260507112512 | 70 | 133 | 3.0 | 7.0 | 0.00 | 0.00 | 0.00 | 53 | 1010.2 |
| 20260507112012 | 69 | 135 | 0.0 | 7.0 | 0.00 | 0.00 | 0.00 | 54 | 1010.2 |
| 20260507111512 | 69 | 208 | 0.0 | 7.0 | 0.00 | 0.00 | 0.00 | 54 | 1010.1 |
| 20260507111012 | 68 | 78 | 2.0 | 7.0 | 0.00 | 0.00 | 0.00 | 53 | 1010.2 |
| 20260507110511 | 69 | 76 | 2.0 | 6.0 | 0.00 | 0.00 | 0.00 | 53 | 1010.2 |
| 20260507110011 | 68 | 197 | 3.0 | 6.0 | 0.00 | 0.00 | 0.00 | 55 | 1010.1 |
| 20260507105511 | 67 | 182 | 0.0 | 5.0 | 0.00 | 0.00 | 0.00 | 56 | 1010.0 |
| 20260507105012 | 67 | 90 | 0.0 | 6.0 | 0.00 | 0.00 | 0.00 | 56 | 1010.2 |
| 20260507104514 | 66 | 136 | 2.0 | 6.0 | 0.00 | 0.00 | 0.00 | 56 | 1010.3 |
| 20260507104014 | 65 | 102 | 0.0 | 8.0 | 0.00 | 0.00 | 0.00 | 56 | 1010.3 |
| 20260507103512 | 65 | 95 | 1.0 | 5.0 | 0.00 | 0.00 | 0.00 | 56 | 1010.2 |
| 20260507103012 | 64 | 100 | 1.0 | 5.0 | 0.00 | 0.00 | 0.00 | 55 | 1010.3 |
| 20260507102512 | 64 | 85 | 1.0 | 6.0 | 0.00 | 0.00 | 0.00 | 55 | 1010.4 |
| 20260507102012 | 64 | 67 | 1.0 | 3.0 | 0.00 | 0.00 | 0.00 | 56 | 1010.5 |
| 20260507101512 | 64 | 49 | 1.0 | 7.0 | 0.00 | 0.00 | 0.00 | 55 | 1010.5 |
| 20260507101012 | 63 | 91 | 1.0 | 9.0 | 0.00 | 0.00 | 0.00 | 55 | 1010.6 |
| 20260507100511 | 63 | 112 | 1.0 | 6.0 | 0.00 | 0.00 | 0.00 | 55 | 1010.5 |
| 20260507100011 | 63 | 94 | 1.0 | 5.0 | 0.00 | 0.00 | 0.00 | 55 | 1010.5 |
| 20260507095512 | 63 | 51 | 1.0 | 7.0 | 0.00 | 0.00 | 0.00 | 55 | 1010.7 |
| 20260507095011 | 63 | 153 | 1.0 | 6.0 | 0.00 | 0.00 | 0.00 | 53 | 1010.7 |
| 20260507094511 | 63 | 83 | 3.0 | 9.0 | 0.00 | 0.00 | 0.00 | 53 | 1010.7 |
| 20260507094012 | 63 | 63 | 2.0 | 7.0 | 0.00 | 0.00 | 0.00 | 53 | 1010.8 |
| 20260507093511 | 63 | 110 | 0.0 | 5.0 | 0.00 | 0.00 | 0.00 | 52 | 1010.9 |
| 20260507093012 | 64 | 106 | 4.0 | 6.0 | 0.00 | 0.00 | 0.00 | 51 | 1010.7 |
| 20260507092511 | 64 | 89 | 1.0 | 6.0 | 0.00 | 0.00 | 0.00 | 50 | 1010.7 |
| 20260507092013 | 65 | 122 | 1.0 | 7.0 | 0.00 | 0.00 | 0.00 | 48 | 1010.8 |
| 20260507091511 | 66 | 84 | 3.0 | 7.0 | 0.00 | 0.00 | 0.00 | 47 | 1010.9 |
| 20260507091012 | 68 | 68 | 2.0 | 7.0 | 0.00 | 0.00 | 0.00 | 45 | 1010.8 |
| 20260507090511 | 70 | 93 | 1.0 | 7.0 | 0.00 | 0.00 | 0.00 | 45 | 1010.8 |
| 20260507090011 | 71 | 106 | 1.0 | 7.0 | 0.00 | 0.00 | 0.00 | 42 | 1010.8 |
| 20260507085511 | 73 | 124 | 1.0 | 6.0 | 0.00 | 0.00 | 0.00 | 42 | 1010.8 |
| 20260507085011 | 74 | 89 | 0.0 | 2.0 | 0.00 | 0.00 | 0.00 | 43 | 1010.9 |
| 20260507084511 | 75 | 142 | 2.0 | 5.0 | 0.00 | 0.00 | 0.00 | 42 | 1010.8 |
| 20260507084011 | 77 | 80 | 2.0 | 6.0 | 0.00 | 0.00 | 0.00 | 41 | 1010.9 |
| 20260507083511 | 78 | 117 | 1.0 | 7.0 | 0.00 | 0.00 | 0.00 | 40 | 1010.7 |
| 20260507083011 | 79 | 104 | 1.0 | 6.0 | 0.00 | 0.00 | 0.00 | 41 | 1010.7 |
| 20260507082511 | 80 | 178 | 2.0 | 6.0 | 0.00 | 0.00 | 0.00 | 41 | 1010.8 |
| 20260507082012 | 80 | 122 | 0.0 | 5.0 | 0.00 | 0.00 | 0.00 | 42 | 1010.8 |
| 20260507081511 | 79 | 144 | 1.0 | 3.0 | 0.00 | 0.00 | 0.00 | 43 | 1010.8 |
| 20260507081011 | 79 | 135 | 0.0 | 3.0 | 0.00 | 0.00 | 0.00 | 44 | 1010.8 |
| 20260507080512 | 78 | 133 | 0.0 | 0.0 | 0.00 | 0.00 | 0.00 | 47 | 1010.8 |
| 20260507080011 | 77 | 133 | 0.0 | 0.0 | 0.00 | 0.00 | 0.00 | 47 | 1011.0 |
| 20260507075512 | 76 | 112 | 0.0 | 0.0 | 0.00 | 0.00 | 0.00 | 48 | 1010.9 |
| 20260507075011 | 75 | 135 | 0.0 | 0.0 | 0.00 | 0.00 | 0.00 | 50 | 1011.0 |
| 20260507074512 | 74 | 202 | 0.0 | 0.0 | 0.00 | 0.00 | 0.00 | 51 | 1010.9 |
| 20260507074011 | 73 | 202 | 0.0 | 0.0 | 0.00 | 0.00 | 0.00 | 54 | 1011.0 |
| 20260507073511 | 71 | 202 | 0.0 | 0.0 | 0.00 | 0.00 | 0.00 | 55 | 1010.9 |
| 20260507073012 | 70 | 202 | 0.0 | 0.0 | 0.00 | 0.00 | 0.00 | 57 | 1011.0 |
| 20260507072511 | 68 | 202 | 0.0 | 0.0 | 0.00 | 0.00 | 0.00 | 59 | 1010.9 |
| 20260507072012 | 67 | 202 | 0.0 | 0.0 | 0.00 | 0.00 | 0.00 | 65 | 1011.0 |
| 20260507071513 | 64 | 202 | 0.0 | 0.0 | 0.00 | 0.00 | 0.00 | 73 | 1011.2 |
| 20260507071013 | 60 | 202 | 0.0 | 0.0 | 0.00 | 0.00 | 0.00 | 80 | 1011.2 |
| 20260507070512 | 57 | 202 | 0.0 | 0.0 | 0.00 | 0.00 | 0.00 | 90 | 1011.1 |
| 20260507070013 | 53 | 202 | 0.0 | 0.0 | 0.00 | 0.00 | 0.00 | 94 | 1011.2 |
| 20260507065512 | 49 | 202 | 0.0 | 0.0 | 0.00 | 0.00 | 0.00 | 94 | 1011.2 |
| 20260507065012 | 46 | 202 | 0.0 | 0.0 | 0.00 | 0.00 | 0.00 | 93 | 1011.1 |
| 20260507064512 | 45 | 202 | 0.0 | 0.0 | 0.00 | 0.00 | 0.00 | 92 | 1011.3 |
| 20260507064011 | 44 | 202 | 0.0 | 0.0 | 0.00 | 0.00 | 0.00 | 92 | 1011.2 |
| 20260507063512 | 44 | 202 | 0.0 | 0.0 | 0.00 | 0.00 | 0.00 | 92 | 1011.3 |
| 20260507063012 | 43 | 202 | 0.0 | 0.0 | 0.00 | 0.00 | 0.00 | 92 | 1011.2 |
| 20260507062512 | 43 | 112 | 0.0 | 0.0 | 0.00 | 0.00 | 0.00 | 92 | 1011.1 |
| 20260507062012 | 44 | 112 | 0.0 | 0.0 | 0.00 | 0.00 | 0.00 | 92 | 1011.1 |
| 20260507061511 | 43 | 112 | 0.0 | 0.0 | 0.00 | 0.00 | 0.00 | 92 | 1011.1 |
| 20260507061011 | 42 | 112 | 0.0 | 0.0 | 0.00 | 0.00 | 0.00 | 92 | 1011.0 |
| 20260507060511 | 42 | 112 | 0.0 | 0.0 | 0.00 | 0.00 | 0.00 | 92 | 1011.0 |
| 20260507060010 | 41 | 112 | 0.0 | 0.0 | 0.00 | 0.00 | 0.00 | 92 | 1011.1 |
| 20260507055511 | 39 | 112 | 0.0 | 0.0 | 0.00 | 0.00 | 0.00 | 92 | 1011.2 |
| 20260507055011 | 38 | 112 | 0.0 | 0.0 | 0.00 | 0.00 | 0.00 | 92 | 1011.1 |
| 20260507054511 | 38 | 112 | 0.0 | 0.0 | 0.00 | 0.00 | 0.00 | 92 | 1011.1 |
| 20260507054011 | 37 | 112 | 0.0 | 0.0 | 0.00 | 0.00 | 0.00 | 92 | 1011.1 |
| 20260507053511 | 36 | 112 | 0.0 | 0.0 | 0.00 | 0.00 | 0.00 | 91 | 1011.2 |
| 20260507053011 | 36 | 112 | 0.0 | 0.0 | 0.00 | 0.00 | 0.00 | 91 | 1011.1 |
| 20260507052512 | 36 | 112 | 0.0 | 0.0 | 0.00 | 0.00 | 0.00 | 91 | 1011.1 |
| 20260507052012 | 35 | 112 | 0.0 | 0.0 | 0.00 | 0.00 | 0.00 | 91 | 1011.1 |
| 20260507051511 | 35 | 112 | 0.0 | 1.0 | 0.00 | 0.00 | 0.00 | 91 | 1011.2 |
| 20260507051012 | 34 | 112 | 0.0 | 0.0 | 0.00 | 0.00 | 0.00 | 91 | 1011.2 |
| 20260507050512 | 34 | 112 | 0.0 | 0.0 | 0.00 | 0.00 | 0.00 | 91 | 1011.1 |
| 20260507050012 | 34 | 112 | 0.0 | 0.0 | 0.00 | 0.00 | 0.00 | 91 | 1011.2 |
| 20260507045511 | 34 | 112 | 0.0 | 0.0 | 0.00 | 0.00 | 0.00 | 91 | 1011.3 |
| 20260507045011 | 33 | 112 | 0.0 | 0.0 | 0.00 | 0.00 | 0.00 | 90 | 1011.4 |
| 20260507044511 | 33 | 112 | 0.0 | 0.0 | 0.00 | 0.00 | 0.00 | 90 | 1011.2 |
| 20260507044011 | 33 | 112 | 0.0 | 0.0 | 0.00 | 0.00 | 0.00 | 90 | 1011.5 |
| 20260507043511 | 33 | 112 | 0.0 | 0.0 | 0.00 | 0.00 | 0.00 | 90 | 1011.4 |
| 20260507043011 | 33 | 112 | 0.0 | 0.0 | 0.00 | 0.00 | 0.00 | 90 | 1011.1 |
| 20260507042511 | 33 | 112 | 0.0 | 0.0 | 0.00 | 0.00 | 0.00 | 90 | 1011.3 |
| 20260507042012 | 33 | 112 | 0.0 | 0.0 | 0.00 | 0.00 | 0.00 | 90 | 1011.4 |
| 20260507041512 | 33 | 112 | 0.0 | 0.0 | 0.00 | 0.00 | 0.00 | 90 | 1011.4 |
| 20260507041011 | 33 | 112 | 0.0 | 0.0 | 0.00 | 0.00 | 0.00 | 90 | 1011.5 |
| 20260507040514 | 33 | 112 | 0.0 | 0.0 | 0.00 | 0.00 | 0.00 | 90 | 1011.5 |
| 20260507040011 | 33 | 112 | 0.0 | 0.0 | 0.00 | 0.00 | 0.00 | 90 | 1011.5 |
| 20260507035512 | 33 | 112 | 0.0 | 0.0 | 0.00 | 0.00 | 0.00 | 90 | 1011.5 |
| 20260507035011 | 33 | 112 | 0.0 | 0.0 | 0.00 | 0.00 | 0.00 | 90 | 1011.5 |
| 20260507034511 | 33 | 112 | 0.0 | 0.0 | 0.00 | 0.00 | 0.00 | 90 | 1011.7 |
| 20260507034012 | 33 | 112 | 0.0 | 0.0 | 0.00 | 0.00 | 0.00 | 90 | 1011.6 |
| 20260507033511 | 33 | 112 | 0.0 | 0.0 | 0.00 | 0.00 | 0.00 | 90 | 1011.6 |
| 20260507033011 | 33 | 112 | 0.0 | 0.0 | 0.00 | 0.00 | 0.00 | 90 | 1011.6 |
| 20260507032510 | 34 | 112 | 0.0 | 0.0 | 0.00 | 0.00 | 0.00 | 89 | 1011.6 |
| 20260507032011 | 34 | 112 | 0.0 | 0.0 | 0.00 | 0.00 | 0.00 | 89 | 1011.6 |
| 20260507031511 | 34 | 112 | 0.0 | 0.0 | 0.00 | 0.00 | 0.00 | 89 | 1011.8 |
| 20260507031011 | 34 | 112 | 0.0 | 0.0 | 0.00 | 0.00 | 0.00 | 89 | 1011.7 |
| 20260507030511 | 34 | 112 | 0.0 | 0.0 | 0.00 | 0.00 | 0.00 | 89 | 1011.7 |
| 20260507030011 | 34 | 112 | 0.0 | 0.0 | 0.00 | 0.00 | 0.00 | 89 | 1011.6 |
| 20260507025511 | 34 | 112 | 0.0 | 0.0 | 0.00 | 0.00 | 0.00 | 89 | 1011.7 |
| 20260507025011 | 34 | 112 | 0.0 | 0.0 | 0.00 | 0.00 | 0.00 | 89 | 1011.6 |
| 20260507024512 | 34 | 112 | 0.0 | 0.0 | 0.00 | 0.00 | 0.00 | 89 | 1011.5 |
| 20260507024011 | 34 | 112 | 0.0 | 0.0 | 0.00 | 0.00 | 0.00 | 89 | 1011.5 |
| 20260507023512 | 34 | 103 | 0.0 | 0.0 | 0.00 | 0.00 | 0.00 | 90 | 1011.5 |
| 20260507023011 | 35 | 112 | 0.0 | 0.0 | 0.00 | 0.00 | 0.00 | 90 | 1011.8 |
| 20260507022512 | 35 | 112 | 0.0 | 0.0 | 0.00 | 0.00 | 0.00 | 90 | 1011.7 |
| 20260507022013 | 35 | 112 | 0.0 | 0.0 | 0.00 | 0.00 | 0.00 | 90 | 1011.8 |
| 20260507021513 | 35 | 112 | 0.0 | 0.0 | 0.00 | 0.00 | 0.00 | 90 | 1011.8 |
| 20260507021014 | 35 | 112 | 0.0 | 0.0 | 0.00 | 0.00 | 0.00 | 90 | 1011.8 |
| 20260507020514 | 35 | 112 | 0.0 | 0.0 | 0.00 | 0.00 | 0.00 | 90 | 1011.9 |
| 20260507020012 | 35 | 112 | 0.0 | 0.0 | 0.00 | 0.00 | 0.00 | 90 | 1011.8 |
| 20260507015512 | 35 | 112 | 0.0 | 0.0 | 0.00 | 0.00 | 0.00 | 89 | 1011.8 |
| 20260507015011 | 35 | 112 | 0.0 | 0.0 | 0.00 | 0.00 | 0.00 | 89 | 1012.0 |
| 20260507014511 | 35 | 112 | 0.0 | 1.0 | 0.00 | 0.00 | 0.00 | 89 | 1011.9 |
| 20260507014010 | 35 | 112 | 0.0 | 0.0 | 0.00 | 0.00 | 0.00 | 89 | 1012.1 |
| 20260507013512 | 35 | 112 | 0.0 | 0.0 | 0.00 | 0.00 | 0.00 | 89 | 1012.1 |
| 20260507013011 | 35 | 112 | 0.0 | 0.0 | 0.00 | 0.00 | 0.00 | 89 | 1012.1 |
| 20260507012511 | 36 | 112 | 0.0 | 0.0 | 0.00 | 0.00 | 0.00 | 89 | 1012.1 |
| 20260507012011 | 36 | 112 | 0.0 | 0.0 | 0.00 | 0.00 | 0.00 | 89 | 1012.1 |
| 20260507011510 | 36 | 112 | 0.0 | 0.0 | 0.00 | 0.00 | 0.00 | 89 | 1012.1 |
| 20260507011011 | 36 | 112 | 0.0 | 0.0 | 0.00 | 0.00 | 0.00 | 89 | 1012.1 |
| 20260507010511 | 36 | 112 | 0.0 | 0.0 | 0.00 | 0.00 | 0.00 | 89 | 1012.1 |
| 20260507010011 | 36 | 112 | 0.0 | 0.0 | 0.00 | 0.00 | 0.00 | 89 | 1012.2 |
| 20260507005511 | 36 | 112 | 0.0 | 0.0 | 0.00 | 0.00 | 0.00 | 89 | 1012.2 |
| 20260507005012 | 36 | 112 | 0.0 | 0.0 | 0.00 | 0.00 | 0.00 | 89 | 1012.3 |
| 20260507004511 | 36 | 112 | 0.0 | 0.0 | 0.00 | 0.00 | 0.00 | 89 | 1012.2 |